Boscobel, WI

1:50 AM CDT on July 21, 2017 (GMT -0500)
Boscobel

Weather History for KOVS - August, 2013

Change the Weather History Date:

Saturday, August 3, 2013

  Actual Average (KPDC) Record (KPDC)
Temperature  
Mean Temperature 66 °F -  
Max Temperature 81 °F 84 °F 101 °F (1988)
Min Temperature 51 °F 59 °F 48 °F (1971)
Growing Degree Days 16 (Base 50)    
Moisture  
Dew Point 53 °F    
Average Humidity 84    
Maximum Humidity 97    
Minimum Humidity 34    
Precipitation  
Precipitation 0.00 in - - ()
Sea Level Pressure  
Sea Level Pressure 30.06 in    
Wind  
Wind Speed 1 mph (NW)    
Max Wind Speed 9 mph    
Max Gust Speed -    
Visibility 5 miles    
Events Fog    
Averages and records for this station are not official NWS values.
T = Trace of Precipitation, MM = Missing Value Source: NWS Daily Summary

Daily Weather History Graph

Daily Weather History Graph

Search for Another Location

Airport or City:

Trip Planner

Search our weather history database for the weather conditions in past years. The results will help you decide how hot, cold, wet, or windy it might be!

Date:

Astronomy

Aug. 03, 2013 Rise Set
Actual Time 5:55 AM CDT 8:21 PM CDT
Civil Twilight 5:23 AM CDT 8:53 PM CDT
Nautical Twilight 4:43 AM CDT 9:33 PM CDT
Astronomical Twilight 3:58 AM CDT 10:17 PM CDT
Moon 3:03 AM CDT (8/3) 6:04 PM CDT (8/3)
Length of Visible Light 15h 30m
Length of Day
14h 25m
Waning Crescent, 9% of the Moon is Illuminated
Aug 3
Waning Crescent
Aug 6
New
Aug 14
First Quarter
Aug 20
Full
Aug 28
Last Quarter

Hourly Weather History & Observations

Time (CDT) Temp. Dew Point Humidity Pressure Visibility Wind Dir Wind Speed Gust Speed Precip Events Conditions
12:53 AM 59.0 °F 57.0 °F 93% 30.01 in 10.0 mi Calm Calm - N/A   Clear
1:53 AM 55.9 °F 55.0 °F 97% 30.02 in 10.0 mi Calm Calm - N/A   Clear
2:53 AM 55.0 °F 54.0 °F 96% 30.03 in 7.0 mi Calm Calm - N/A   Clear
3:12 AM 54.0 °F 53.1 °F 97% 30.04 in 2.0 mi Calm Calm - N/A   Clear
3:21 AM 54.0 °F 52.0 °F 93% 30.04 in 8.0 mi WNW 3.5 mph - N/A   Clear
3:53 AM 53.1 °F 51.1 °F 93% 30.05 in 3.0 mi Calm Calm - N/A   Clear
3:59 AM 53.1 °F 51.1 °F 93% 30.05 in 1.8 mi Calm Calm - N/A   Clear
4:07 AM 53.1 °F 52.0 °F 96% 30.05 in 1.2 mi Calm Calm - N/A   Partly Cloudy
4:12 AM 53.1 °F 51.1 °F 93% 30.05 in 4.0 mi Calm Calm - N/A   Partly Cloudy
4:21 AM 53.1 °F 52.0 °F 96% 30.05 in 1.8 mi Calm Calm - N/A   Partly Cloudy
4:31 AM 53.1 °F 52.0 °F 96% 30.06 in 0.8 mi Calm Calm - N/A   Clear
4:40 AM 52.0 °F 51.1 °F 97% 30.06 in 0.8 mi Calm Calm - N/A   Mist
4:53 AM 53.1 °F 52.0 °F 96% 30.06 in 0.5 mi Calm Calm - N/A Fog Fog
4:57 AM 53.1 °F 51.1 °F 93% 30.06 in 1.2 mi Calm Calm - N/A   Scattered Clouds
4:59 AM 53.1 °F 51.1 °F 93% 30.06 in 3.0 mi Calm Calm - N/A   Mostly Cloudy
5:07 AM 52.0 °F 51.1 °F 97% 30.06 in 2.5 mi Calm Calm - N/A   Scattered Clouds
5:18 AM 53.1 °F 51.1 °F 93% 30.06 in 6.0 mi Calm Calm - N/A   Mostly Cloudy
5:24 AM 52.0 °F 51.1 °F 97% 30.06 in 1.5 mi Calm Calm - N/A   Mostly Cloudy
5:27 AM 52.0 °F 51.1 °F 97% 30.06 in 0.8 mi Calm Calm - N/A   Mist
5:35 AM 52.0 °F 51.1 °F 97% 30.06 in 1.2 mi Calm Calm - N/A   Scattered Clouds
5:40 AM 52.0 °F 51.1 °F 97% 30.06 in 3.0 mi Calm Calm - N/A   Scattered Clouds
5:49 AM 51.8 °F 50.0 °F 94% 30.06 in 1.5 mi Calm Calm - N/A   Scattered Clouds
5:53 AM 52.0 °F 50.0 °F 93% 29.53 in 0.8 mi Calm Calm - N/A   Mist
6:15 AM 52.0 °F 51.1 °F 97% 30.07 in 1.2 mi Calm Calm - N/A   Mist
6:22 AM 53.1 °F 52.0 °F 96% 30.07 in 0.2 mi Calm Calm - N/A Fog Fog
6:32 AM 54.0 °F 52.0 °F 93% 30.08 in 0.2 mi Calm Calm - N/A Fog Fog
6:53 AM 55.9 °F 55.0 °F 97% 30.08 in 0.2 mi Calm Calm - N/A Fog Fog
7:53 AM 57.0 °F 55.9 °F 96% 29.53 in 0.2 mi Calm Calm - N/A Fog Fog
8:13 AM 57.9 °F 57.0 °F 97% 30.10 in 0.5 mi Calm Calm - N/A Fog Fog
8:18 AM 57.9 °F 57.0 °F 97% 30.10 in 1.2 mi Calm Calm - N/A   Mist
8:24 AM 59.0 °F 57.0 °F 93% 30.10 in 3.0 mi Calm Calm - N/A   Mist
8:34 AM 60.1 °F 57.9 °F 93% 30.11 in 10.0 mi Calm Calm - N/A   Mostly Cloudy
8:53 AM 61.0 °F 59.0 °F 93% 30.11 in 10.0 mi Calm Calm - N/A   Partly Cloudy
9:53 AM 71.1 °F 55.9 °F 59% 30.11 in 10.0 mi Calm Calm - N/A   Clear
10:53 AM 75.0 °F 55.0 °F 50% 30.12 in 10.0 mi Variable 3.5 mph - N/A   Clear
11:53 AM 78.1 °F 51.1 °F 39% 30.12 in 10.0 mi NW 6.9 mph - N/A   Unknown
12:53 PM 78.1 °F 51.1 °F 39% 30.12 in 10.0 mi West 3.5 mph - N/A   Scattered Clouds
2:53 PM 79.0 °F 54.0 °F 42% 30.12 in 10.0 mi Variable 5.8 mph - N/A   Scattered Clouds
3:53 PM 80.1 °F 52.0 °F 38% 30.11 in 10.0 mi North 9.2 mph - N/A   Mostly Cloudy
4:53 PM 80.1 °F 48.9 °F 34% 30.11 in 10.0 mi North 9.2 mph - N/A   Partly Cloudy
5:53 PM 78.1 °F 51.1 °F 39% 30.11 in 10.0 mi NNW 8.1 mph - N/A   Clear
6:53 PM 77.0 °F 51.1 °F 40% 30.11 in 10.0 mi NNW 6.9 mph - N/A   Clear
8:53 PM 64.0 °F 55.0 °F 73% 30.13 in 10.0 mi Calm Calm - N/A   Clear
10:53 PM 57.0 °F 55.0 °F 93% 30.17 in 10.0 mi Calm Calm - N/A   Clear
11:53 PM 55.0 °F 53.1 °F 93% 30.18 in 8.0 mi Calm Calm - N/A   Clear